Regional Weather Roundup
Issued by NWS

Home | Current Version | Previous Version | Text Only | Print | Product List | Glossary Off
Versions: 1 2 3 4 5 6 7 8 9 10 11 12 13 14 15 16 17 18 19 20 21 22 23 24 25 26 27

000
ASUS45 KSLC 161810
RWRUT

UTAH REGIONAL WEATHER ROUNDUP
NATIONAL WEATHER SERVICE SALT LAKE CITY UT
1200 PM MDT WED APR 16 2014

UTZ001>011-023>025-161900-

NORTHERN UTAH

CITY           SKY/WX    TMP DP  RH WIND       PRES   REMARKS
HILL AFB       PTSUNNY   50  12  22 W6        30.02S
LOGAN          MOSUNNY   48  17  29 CALM      30.02F
OGDEN          PTSUNNY   51  17  26 W8        30.02R
PROVO AIRPORT  PTSUNNY   54  18  24 W9        30.02R
SALT LAKE CITY PTSUNNY   54  16  22 W10       30.02S
VERNAL         MOSUNNY   52  15  23 S10       29.98R
WENDOVER       SUNNY     55  16  21 SE9       30.03S
WEST JORDAN    SUNNY     52  25  35 NW13G18   30.03R

$$

UTZ012>022-026-027-161900-

SOUTHERN UTAH

CITY           SKY/WX    TMP DP  RH WIND       PRES   REMARKS
BRYCE CANYON   CLOUDY    48  20  32 NW15      30.03R
CEDAR CITY     CLOUDY    54  21  27 N7        30.00R
MILFORD        CLOUDY    54  18  24 N14G21    30.01S
MOAB/CYNLANDS  CLOUDY    58  10  15 VRB6      29.91S
PRICE          CLOUDY    55   5  13 NW14      29.95S
ST GEORGE      MOCLDY    66  23  19 W3        29.91S

$$

REGIONAL REPORTS     COLORADO/ARIZONA

CITY           SKY/WX    TMP DP  RH WIND       PRES   REMARKS
CRAIG, CO      MOSUNNY   45   9  23 W9        30.00F
GRAND JUNCTION CLOUDY    54  11  18 VRB3      29.95F
RIFLE          CLOUDY    50  11  20 CALM      29.97F
MONTROSE       CLOUDY    51  17  26 N8        29.98S
CORTEZ         PTSUNNY   62  19  19 W10       29.91S
PAGE, AZ       CLOUDY    63  17  17 VRB5      29.91R
GRAND CANYON   MOSUNNY   62   8  12 W9        29.99S
KINGMAN        SUNNY     78   9   7 NW6       29.87R
FLAGSTAFF      MOSUNNY   62   8  12 W9G18     29.99F

$$

REGIONAL REPORTS    NEVADA/IDAHO/WYOMING

CITY           SKY/WX    TMP DP  RH WIND       PRES   REMARKS
LAS VEGAS, NV  MOSUNNY   77  13   9 CALM      29.81R
ELY            PTSUNNY   48  26  42 VRB5      30.06F
ELKO           CLOUDY    50  24  36 CALM      30.05F
POCATELLO, ID  MOSUNNY   49  13  23 CALM      30.05S
BURLEY         SUNNY     51  17  26 W9G16     30.04S
EVANSTON, WY   MOSUNNY   45  10  24 W17G25    30.00S
ROCK SPRINGS   SUNNY     43   1  17 W9G17     29.99S

$$



USA.gov is the U.S. government's official web portal to all federal, state and local government web resources and services.